Location: Bottenau
(48.5138°N, 8.0462°E)
Time: 20:06:39
(UTC+00:00)

Genesis I - Pass Details

Date: 18 April 2021
Orbit: 482 x 537 km, 64.5° (Epoch: 18 May)

Event Time Altitude Azimuth Distance (km) Brightness Sun altitude
Rises 20:18:13 0° 324° (NW) 2,669 8.4 -17.3°
Reaches altitude 10° 20:20:28 10° 330° (NNW) 1,784 7.0 -17.6°
Maximum altitude 20:24:20 46° 45° (NE) 724 3.8 -18.0°
Enters shadow 20:25:29 35° 90° (E) 869 3.9 -18.2°
